[[{"header":{"parameterUnit":"m.s-1","parameterCategory":1,"la1":30.2991,"la2":30.254,"lo1":-89.0895,"lo2":-89.0444,"dy":0.0017,"dx":0.0017,"nx":28,"ny":28,"refTime":"2025-09-16T21:00:00:Z","depth":0,"parameterNumber":2,"parameterNumberName":"U-component_of_WINDS"},"data":[0,0,0,0,0,0,0,0,0,0,0,0,0,0,0,0,0,0,0,0,0,0,0,0,0,0,0,0,0,0,0,0,0,0,0,0,0,0,0,0,0,0,0,0,0,0,0,0,0,0,0,0,0,0,0,0,0,0,-0.0559,-0.0558,0,-0.0488,-0.0488,-0.0487,-0.0459,-0.046,-0.046,-0.046,-0.0388,-0.0386,-0.0384,0,0,0,0,0,0,0,0,0,0,0,0,0,-0.0669,-0.0667,-0.0559,-0.0558,-0.0557,-0.0489,-0.0488,-0.0487,-0.0459,-0.046,-0.046,-0.046,-0.0388,-0.0386,-0.0383,0,0,0,0,0,0,0,0,0,0,0,0,0,-0.0612,-0.0666,-0.0559,-0.0535,-0.0532,-0.0489,-0.0488,-0.0486,-0.0459,-0.046,-0.046,-0.046,-0.0389,-0.0386,-0.0383,-0.0358,0,0,-0.0373,-0.0372,0,0,0,0,0,0,0,0,-0.0615,-0.0608,-0.0539,-0.0537,-0.0533,-0.0483,-0.05,-0.0443,-0.0459,-0.0487,-0.046,-0.046,-0.0419,-0.0414,-0.04,-0.0355,-0.0351,-0.0373,-0.0371,-0.037,-0.0369,0,0,0,0,0,0,0,-0.0619,-0.0611,-0.0531,-0.0539,-0.0535,-0.0528,-0.052,-0.0489,-0.0452,-0.0485,-0.0482,-0.0475,-0.0418,-0.0403,-0.0398,-0.035,-0.0373,-0.037,-0.0368,-0.0367,-0.0281,-0.0281,0,0,0,0,0,0,-0.0627,-0.0614,-0.0533,-0.0529,-0.0576,-0.0526,-0.0517,-0.0499,-0.0453,-0.0446,-0.0474,-0.0473,-0.0408,-0.0402,-0.0395,-0.0363,-0.037,-0.0367,-0.0365,-0.0281,-0.0281,-0.0281,0,0,0,0,0,0,-0.063,-0.062,-0.0536,-0.0571,-0.056,-0.0523,-0.0503,-0.0497,-0.0483,-0.0445,-0.0438,-0.0466,-0.0408,-0.04,-0.0367,-0.036,-0.0366,-0.0363,-0.0282,-0.0281,-0.0281,-0.0298,0,0,0,0,0,0,-0.0633,-0.0621,-0.0611,-0.0571,-0.0558,-0.051,-0.0503,-0.0496,-0.0477,-0.0476,-0.0435,-0.0429,-0.0408,-0.0372,-0.0364,-0.0356,-0.036,-0.0282,-0.0282,-0.0281,-0.0298,-0.0298,-0.0298,0,0,0,0,0,-0.0637,-0.0619,-0.0611,-0.0601,-0.0545,-0.0509,-0.0502,-0.0478,-0.0477,-0.0467,-0.0442,-0.043,-0.0362,-0.0369,-0.036,-0.035,-0.0283,-0.0282,-0.0281,-0.0297,-0.0298,-0.0298,0,0,0,0,0,0,-0.0659,-0.0613,-0.0604,-0.0572,-0.0545,-0.0505,-0.0491,-0.0478,-0.0451,-0.045,-0.0421,-0.0412,-0.0383,-0.0363,-0.0372,-0.0323,-0.0321,-0.0319,-0.0337,-0.0337,-0.0337,-0.0342,-0.0358,0,0,0,0,0,-0.0661,-0.0635,-0.0596,-0.0572,-0.0559,-0.0527,-0.0511,-0.0495,-0.0465,-0.0453,-0.0427,-0.0398,-0.037,-0.0353,-0.0325,-0.0295,-0.0285,-0.0283,-0.0284,-0.0284,-0.0282,-0.0264,-0.0263,-0.0278,-0.0278,-0.0278,0,0,-0.0663,-0.0635,-0.062,-0.0576,-0.0553,-0.0527,-0.0518,-0.0491,-0.0472,-0.0449,-0.0417,-0.0397,-0.0363,-0.0332,-0.0317,-0.0315,-0.0276,-0.0283,-0.0283,-0.0281,-0.0263,-0.0262,-0.0261,-0.0277,-0.0277,-0.0277,0,0,-0.0654,-0.063,-0.0607,-0.0584,-0.0549,-0.0528,-0.0523,-0.0485,-0.047,-0.0438,-0.042,-0.0397,-0.0349,-0.0326,-0.0308,-0.0291,-0.0279,-0.0283,-0.0283,-0.0266,-0.0265,-0.0264,-0.0257,-0.0256,-0.0281,-0.0281,-0.0281,0,-0.0661,-0.0622,-0.0597,-0.0571,-0.0552,-0.0531,-0.0507,-0.0486,-0.0444,-0.0432,-0.043,-0.037,-0.0346,-0.0309,-0.0305,-0.0291,-0.0284,-0.0287,-0.0267,-0.0266,-0.0264,-0.0258,-0.0256,-0.0281,-0.0281,-0.0281,-0.0281,0,-0.0633,-0.0606,-0.0592,-0.0551,-0.0531,-0.0507,-0.0478,-0.046,-0.0446,-0.0425,-0.0392,-0.0363,-0.0328,-0.0318,-0.0304,-0.0279,-0.0279,-0.0273,-0.027,-0.0264,-0.0258,-0.0255,-0.0282,-0.0282,-0.0282,-0.0282,0,0,-0.0635,-0.0582,-0.0577,-0.0559,-0.0519,-0.0497,-0.0472,-0.0439,-0.0424,-0.0396,-0.0374,-0.0335,-0.0328,-0.0308,-0.0291,-0.0276,-0.0264,-0.0272,-0.027,-0.0271,-0.0235,-0.024,-0.0238,-0.0256,-0.0256,-0.0255,-0.0238,0,-0.0621,-0.0575,-0.0552,-0.0515,-0.049,-0.047,-0.0448,-0.0421,-0.0401,-0.0377,-0.0354,-0.0327,-0.0321,-0.0309,-0.0293,-0.0269,-0.0257,-0.027,-0.0235,-0.0234,-0.0244,-0.0234,-0.0239,-0.0224,-0.0235,-0.0235,-0.0234,0,-0.0598,-0.057,-0.0531,-0.0494,-0.0483,-0.0464,-0.0431,-0.0408,-0.0377,-0.0364,-0.0341,-0.0325,-0.0297,-0.0297,-0.0259,-0.0269,-0.0253,-0.0239,-0.0238,-0.0234,-0.0234,-0.0229,-0.0219,-0.0217,-0.023,-0.0231,-0.0231,0,-0.0604,-0.0556,-0.0527,-0.0512,-0.0468,-0.0455,-0.0436,-0.0405,-0.0387,-0.0359,-0.0347,-0.0316,-0.0299,-0.0275,-0.0251,-0.0253,-0.0215,-0.0212,-0.0203,-0.0203,-0.0195,-0.0196,-0.0182,-0.0186,-0.0186,-0.0186,-0.0186,0,-0.059,-0.0567,-0.0529,-0.0511,-0.0485,-0.0459,-0.0433,-0.0413,-0.0386,-0.0363,-0.0344,-0.0323,-0.0292,-0.0268,-0.0248,-0.022,-0.0212,-0.02,-0.0196,-0.0202,-0.0204,-0.0191,-0.0192,-0.0185,-0.0185,-0.0186,-0.0186,0,-0.0592,-0.0565,-0.0532,-0.0493,-0.0483,-0.0466,-0.0432,-0.0414,-0.0393,-0.0365,-0.0357,-0.0325,-0.0295,-0.0268,-0.0229,-0.0216,-0.0186,-0.018,-0.0197,-0.0194,-0.0186,-0.0187,-0.0163,-0.0159,-0.0166,-0.0166,-0.0166,0,-0.0584,-0.0566,-0.0526,-0.051,-0.0491,-0.0465,-0.0446,-0.0419,-0.0401,-0.0364,-0.035,-0.0319,-0.0293,-0.0246,-0.0219,-0.0189,-0.0182,-0.0175,-0.0177,-0.0184,-0.0181,-0.0183,-0.0181,-0.0176,-0.0176,-0.0176,-0.0176,0,-0.0574,-0.0562,-0.0536,-0.0505,-0.0483,-0.0457,-0.0431,-0.0419,-0.0387,-0.0367,-0.0336,-0.0316,-0.0276,-0.0245,-0.0212,-0.0192,-0.0179,-0.0176,-0.0172,-0.0178,-0.0188,-0.0182,-0.0197,-0.0176,-0.0176,-0.0176,-0.0176,-0.0176,-0.0571,-0.0554,-0.0523,-0.0494,-0.0472,-0.0448,-0.0429,-0.0406,-0.038,-0.0345,-0.0331,-0.03,-0.0269,-0.0223,-0.0204,-0.0179,-0.0177,-0.0171,-0.017,-0.0169,-0.017,-0.0192,-0.0173,-0.0173,-0.0173,-0.0173,-0.0173,0,-0.056,-0.0539,-0.0513,-0.0477,-0.0454,-0.0444,-0.0414,-0.0396,-0.0369,-0.0341,-0.0316,-0.0281,-0.0251,-0.0222,-0.019,-0.0176,-0.0169,-0.0169,-0.017,-0.0165,-0.0174,-0.018,-0.0175,-0.0175,-0.0175,-0.0175,-0.0175,-0.0175,-0.0552,-0.0522,-0.0506,-0.0466,-0.0445,-0.0414,-0.0398,-0.0376,-0.0354,-0.0316,-0.0291,-0.0272,-0.0244,-0.0211,-0.0183,-0.0175,-0.0164,-0.0166,-0.0156,-0.0165,-0.0165,-0.0165,-0.0171,-0.0164,-0.0164,-0.0149,-0.0149,-0.0149]},{"header":{"parameterUnit":"m.s-1","parameterCategory":1,"la1":30.2991,"la2":30.254,"lo1":-89.0895,"lo2":-89.0444,"dy":0.0017,"dx":0.0017,"nx":28,"ny":28,"refTime":"2025-09-16T21:00:00:Z","depth":0,"parameterNumber":3,"parameterNumberName":"V-component_of_WINDS"},"data":[0,0,0,0,0,0,0,0,0,0,0,0,0,0,0,0,0,0,0,0,0,0,0,0,0,0,0,0,0,0,0,0,0,0,0,0,0,0,0,0,0,0,0,0,0,0,0,0,0,0,0,0,0,0,0,0,0,0,0.7356,0.7355,0,0.7303,0.7303,0.7302,0.7332,0.7334,0.7335,0.7336,0.728,0.7277,0.7275,0,0,0,0,0,0,0,0,0,0,0,0,0,0.7478,0.7476,0.7356,0.7355,0.7354,0.7304,0.7303,0.7302,0.7332,0.7334,0.7335,0.7337,0.7281,0.7278,0.7274,0,0,0,0,0,0,0,0,0,0,0,0,0,0.7425,0.7475,0.7356,0.7363,0.7363,0.7304,0.7303,0.7302,0.7331,0.7334,0.7336,0.7338,0.7282,0.7278,0.7274,0.7203,0,0,0.7261,0.7259,0,0,0,0,0,0,0,0,0.7428,0.7421,0.7363,0.7363,0.7363,0.7327,0.7325,0.7269,0.7331,0.7343,0.7336,0.7339,0.7294,0.7289,0.7274,0.7201,0.7198,0.726,0.7258,0.7256,0.7255,0,0,0,0,0,0,0,0.7432,0.7423,0.7335,0.7362,0.7362,0.7368,0.7363,0.7315,0.7307,0.7342,0.7345,0.7338,0.7294,0.7278,0.7273,0.7197,0.726,0.7257,0.7254,0.7252,0.7062,0.7059,0,0,0,0,0,0,0.7435,0.7426,0.7337,0.7333,0.7402,0.7364,0.7358,0.7336,0.7307,0.7305,0.7336,0.734,0.7284,0.7278,0.7271,0.7184,0.7256,0.7252,0.7249,0.7064,0.7061,0.7058,0,0,0,0,0,0,0.7438,0.7427,0.7339,0.738,0.7369,0.736,0.7334,0.7334,0.7318,0.7303,0.7301,0.7321,0.7286,0.7277,0.722,0.7183,0.725,0.7246,0.7067,0.7063,0.706,0.7012,0,0,0,0,0,0,0.7441,0.7428,0.7402,0.7379,0.7367,0.7289,0.7332,0.7331,0.731,0.7314,0.7288,0.7286,0.7287,0.7226,0.7215,0.7178,0.7243,0.707,0.7065,0.7061,0.7017,0.7007,0.6999,0,0,0,0,0,0.7446,0.739,0.74,0.7389,0.7334,0.7287,0.728,0.7282,0.7307,0.728,0.727,0.7287,0.7189,0.722,0.7208,0.7169,0.7072,0.7067,0.7061,0.7021,0.7009,0.6999,0,0,0,0,0,0,0.7407,0.7387,0.7398,0.7334,0.7312,0.7292,0.7257,0.727,0.7239,0.7244,0.7248,0.7242,0.7182,0.717,0.7205,0.7098,0.7135,0.7126,0.7108,0.7096,0.7088,0.709,0.7239,0,0,0,0,0,0.7391,0.7355,0.734,0.7285,0.7273,0.7267,0.7247,0.7251,0.7228,0.7218,0.7204,0.718,0.7144,0.712,0.7086,0.7016,0.701,0.6984,0.6975,0.6967,0.6959,0.6919,0.6907,0.704,0.704,0.704,0,0,0.7358,0.7343,0.732,0.7276,0.726,0.7221,0.7259,0.7217,0.7188,0.7211,0.7156,0.7145,0.7119,0.7054,0.7025,0.7042,0.6921,0.696,0.6955,0.695,0.6912,0.6899,0.6888,0.7036,0.7037,0.7037,0,0,0.7277,0.7263,0.7214,0.7197,0.7171,0.7168,0.7156,0.7134,0.7128,0.7073,0.7089,0.7055,0.6993,0.6973,0.6954,0.6866,0.6879,0.6855,0.6807,0.6768,0.6757,0.6748,0.6713,0.6701,0.6847,0.6847,0.6847,0,0.7238,0.7181,0.7187,0.7143,0.7123,0.7144,0.7094,0.7077,0.7041,0.7026,0.7047,0.6969,0.6953,0.6883,0.6861,0.6847,0.6832,0.6856,0.6758,0.6749,0.674,0.6708,0.6695,0.6844,0.6845,0.6845,0.6845,0,0.7133,0.7094,0.7058,0.7023,0.6999,0.6952,0.695,0.6925,0.6932,0.6926,0.6868,0.685,0.6812,0.6796,0.6802,0.6726,0.6737,0.6758,0.6794,0.6724,0.6694,0.6682,0.684,0.6841,0.6842,0.6843,0,0,0.7024,0.6994,0.6981,0.6964,0.6938,0.6907,0.6861,0.6825,0.6802,0.6777,0.6737,0.6684,0.6703,0.6682,0.6686,0.6652,0.658,0.6677,0.6676,0.6657,0.6493,0.6475,0.6461,0.659,0.6588,0.6586,0.6494,0,0.6939,0.6859,0.6863,0.6788,0.675,0.677,0.6729,0.6708,0.6701,0.6668,0.6661,0.6622,0.6651,0.6638,0.6606,0.6596,0.6547,0.6603,0.655,0.6548,0.6553,0.6445,0.6426,0.6341,0.6482,0.648,0.6479,0,0.6829,0.68,0.6721,0.6699,0.6683,0.6647,0.6613,0.6582,0.6558,0.6555,0.6532,0.6541,0.6493,0.6533,0.6465,0.6503,0.6483,0.6474,0.6471,0.6464,0.6507,0.6432,0.6314,0.6299,0.6461,0.6462,0.6463,0,0.6754,0.6696,0.664,0.6626,0.66,0.6574,0.6562,0.654,0.6518,0.6488,0.6473,0.6439,0.6419,0.6391,0.639,0.642,0.6321,0.6361,0.6316,0.6315,0.6292,0.6293,0.6165,0.6283,0.6283,0.6284,0.6284,0,0.6656,0.6606,0.6606,0.6571,0.6515,0.6521,0.6465,0.6456,0.6436,0.6399,0.6415,0.638,0.6382,0.6346,0.6346,0.6289,0.628,0.6275,0.6275,0.6272,0.6272,0.6256,0.6261,0.628,0.6281,0.6282,0.6282,0,0.6562,0.656,0.65,0.6481,0.6475,0.6434,0.6417,0.6384,0.6379,0.6332,0.6321,0.6313,0.6272,0.6269,0.6221,0.6221,0.615,0.6158,0.6158,0.6158,0.6112,0.6115,0.5967,0.5947,0.6081,0.608,0.6079,0,0.6498,0.646,0.6437,0.6413,0.64,0.6362,0.6339,0.6344,0.6319,0.6289,0.6258,0.6219,0.6187,0.6119,0.6108,0.6071,0.6076,0.6027,0.6071,0.6068,0.6072,0.6073,0.6068,0.6018,0.6016,0.6015,0.6014,0,0.6385,0.6386,0.6352,0.6318,0.6291,0.6264,0.624,0.6219,0.6221,0.6192,0.615,0.6125,0.6076,0.6035,0.5999,0.5986,0.5999,0.6001,0.5988,0.5983,0.5983,0.5979,0.6132,0.6003,0.6004,0.6005,0.6006,0.6006,0.6301,0.6268,0.6246,0.6208,0.619,0.6167,0.6134,0.6125,0.6091,0.6051,0.6056,0.6009,0.5985,0.5938,0.5922,0.5884,0.5901,0.5882,0.5877,0.5872,0.5865,0.5992,0.5878,0.5878,0.5878,0.5879,0.5879,0,0.6186,0.6173,0.6139,0.6104,0.6073,0.6091,0.6064,0.6037,0.5996,0.5973,0.5942,0.5892,0.5853,0.584,0.5801,0.5773,0.5778,0.5763,0.5763,0.5759,0.5854,0.5868,0.5759,0.5759,0.5759,0.5759,0.5759,0.5759,0.6122,0.6066,0.6064,0.5998,0.5986,0.594,0.5923,0.5901,0.5883,0.5827,0.5795,0.5787,0.5767,0.5728,0.5692,0.5689,0.5672,0.5654,0.5653,0.5741,0.5753,0.5764,0.5777,0.5651,0.5651,0.5561,0.556,0.5559]}]]